Year,Month,Day,Hour,Minute,Value (Times are PST for temperature in C)
2009,09,17,07,51,11.50
2009,09,17,07,52,11.50
2009,09,17,07,53,11.50
2009,09,17,07,54,11.50
2009,09,17,07,55,11.50
2009,09,17,07,56,11.50
2009,09,17,07,57,11.50
2009,09,17,07,58,11.50
2009,09,17,07,59,11.50
2009,09,17,08,00,11.60
2009,09,17,08,01,11.60
2009,09,17,08,02,11.70
2009,09,17,08,03,11.70
2009,09,17,08,04,11.80
2009,09,17,08,05,11.80
2009,09,17,08,06,11.80
2009,09,17,08,07,11.80
2009,09,17,08,08,11.90
2009,09,17,08,09,11.90
2009,09,17,08,10,11.90
2009,09,17,08,11,11.90
2009,09,17,08,12,12.00
2009,09,17,08,13,12.10
2009,09,17,08,14,12.10
2009,09,17,08,15,12.10
2009,09,17,08,16,12.20
2009,09,17,08,17,12.20
2009,09,17,08,18,12.20
2009,09,17,08,19,12.30
2009,09,17,08,20,12.30
2009,09,17,08,21,12.30
2009,09,17,08,22,12.30
2009,09,17,08,23,12.30
2009,09,17,08,24,12.30
2009,09,17,08,25,12.30
2009,09,17,08,26,12.30
2009,09,17,08,27,12.30
2009,09,17,08,28,12.30
2009,09,17,08,29,12.40
2009,09,17,08,30,12.40
2009,09,17,08,31,12.40
2009,09,17,08,32,12.40
2009,09,17,08,33,12.50
2009,09,17,08,34,12.50
2009,09,17,08,35,12.60
2009,09,17,08,36,12.60
2009,09,17,08,37,12.60
2009,09,17,08,38,12.70
2009,09,17,08,39,12.70
2009,09,17,08,40,12.80
2009,09,17,08,41,12.80
2009,09,17,08,42,12.90
2009,09,17,08,43,13.00
2009,09,17,08,44,13.10
2009,09,17,08,45,13.20
2009,09,17,08,46,13.30
2009,09,17,08,47,13.40
2009,09,17,08,48,13.40
2009,09,17,08,49,13.50
2009,09,17,08,50,13.50
2009,09,17,08,51,13.60
2009,09,17,08,52,13.60
2009,09,17,08,53,13.70
2009,09,17,08,54,13.70
2009,09,17,08,55,13.70
2009,09,17,08,56,13.70
2009,09,17,08,57,13.70
2009,09,17,08,58,13.70
2009,09,17,08,59,13.70
2009,09,17,09,00,13.70
2009,09,17,09,01,13.60
2009,09,17,09,02,13.60
2009,09,17,09,03,13.60
2009,09,17,09,04,13.60
2009,09,17,09,05,13.50
2009,09,17,09,06,13.50
2009,09,17,09,07,13.50
2009,09,17,09,08,13.50
2009,09,17,09,09,13.50
2009,09,17,09,10,13.50
2009,09,17,09,11,13.50
2009,09,17,09,12,13.50
2009,09,17,09,13,13.60
2009,09,17,09,14,13.60
2009,09,17,09,15,13.60
2009,09,17,09,16,13.70
2009,09,17,09,17,13.70
2009,09,17,09,18,13.70
2009,09,17,09,19,13.70
2009,09,17,09,20,13.70
2009,09,17,09,21,13.70
2009,09,17,09,22,13.70
2009,09,17,09,23,13.70
2009,09,17,09,24,13.70
2009,09,17,09,25,13.70
2009,09,17,09,26,13.80
2009,09,17,09,27,13.80
2009,09,17,09,28,13.80
2009,09,17,09,29,13.90
2009,09,17,09,30,13.90
2009,09,17,09,31,14.00
2009,09,17,09,32,14.10
2009,09,17,09,33,14.20
2009,09,17,09,34,14.30
2009,09,17,09,35,14.30
2009,09,17,09,36,14.50
2009,09,17,09,37,14.60
2009,09,17,09,38,14.70
2009,09,17,09,39,14.80
2009,09,17,09,40,15.00
2009,09,17,09,41,15.00
2009,09,17,09,42,15.00
2009,09,17,09,43,15.00
2009,09,17,09,44,15.10
2009,09,17,09,45,15.20
2009,09,17,09,46,15.30
2009,09,17,09,47,15.30
2009,09,17,09,48,15.30
2009,09,17,09,49,15.30
2009,09,17,09,50,15.30
2009,09,17,09,51,15.30
2009,09,17,09,52,15.30
2009,09,17,09,53,15.30
2009,09,17,09,54,15.30
2009,09,17,09,55,15.30
2009,09,17,09,56,15.20
2009,09,17,09,57,15.20
2009,09,17,09,58,15.20
2009,09,17,09,59,15.20
2009,09,17,10,00,15.10
2009,09,17,10,01,15.10
2009,09,17,10,02,15.00
2009,09,17,10,03,15.00
2009,09,17,10,04,15.00
2009,09,17,10,05,15.00
2009,09,17,10,06,15.00
2009,09,17,10,07,15.00
2009,09,17,10,08,15.00
2009,09,17,10,09,15.00
2009,09,17,10,10,15.10
2009,09,17,10,11,15.20
2009,09,17,10,12,15.20
2009,09,17,10,13,15.30
2009,09,17,10,14,15.30
2009,09,17,10,15,15.30
2009,09,17,10,16,15.30
2009,09,17,10,17,15.30
2009,09,17,10,18,15.30
2009,09,17,10,19,15.30
2009,09,17,10,20,15.20
2009,09,17,10,21,15.20
2009,09,17,10,22,15.20
2009,09,17,10,23,15.20
2009,09,17,10,24,15.20
2009,09,17,10,25,15.10
2009,09,17,10,26,15.00
2009,09,17,10,27,15.00
2009,09,17,10,28,15.00
2009,09,17,10,29,15.10
2009,09,17,10,30,15.10
2009,09,17,10,31,15.20
2009,09,17,10,32,15.20
2009,09,17,10,33,15.20
2009,09,17,10,34,15.30
2009,09,17,10,35,15.30
2009,09,17,10,36,15.30
2009,09,17,10,37,15.30
2009,09,17,10,38,15.40
2009,09,17,10,39,15.40
2009,09,17,10,40,15.40
2009,09,17,10,41,15.40
2009,09,17,10,42,15.30
2009,09,17,10,43,15.30
2009,09,17,10,44,15.20
2009,09,17,10,45,15.00
2009,09,17,10,46,15.00
2009,09,17,10,47,15.00
2009,09,17,10,48,15.00
2009,09,17,10,49,14.90
2009,09,17,10,50,15.00
2009,09,17,10,51,15.00
2009,09,17,10,52,15.00
2009,09,17,10,53,15.00
2009,09,17,10,54,15.00
2009,09,17,10,55,15.00
2009,09,17,10,56,15.00
2009,09,17,10,57,15.00
2009,09,17,10,58,15.00
2009,09,17,10,59,15.00
2009,09,17,11,00,15.00
2009,09,17,11,01,15.00
2009,09,17,11,02,15.00
2009,09,17,11,03,15.00
2009,09,17,11,04,15.00
2009,09,17,11,05,15.10
2009,09,17,11,06,15.10
2009,09,17,11,07,15.10
2009,09,17,11,08,15.20
2009,09,17,11,09,15.20
2009,09,17,11,10,15.30
2009,09,17,11,11,15.40
2009,09,17,11,12,15.40
2009,09,17,11,13,15.40
2009,09,17,11,14,15.50
2009,09,17,11,15,15.60
2009,09,17,11,16,15.70
2009,09,17,11,17,15.70
2009,09,17,11,18,15.80
2009,09,17,11,19,15.80
2009,09,17,11,20,15.80
2009,09,17,11,21,15.90
2009,09,17,11,22,16.00
2009,09,17,11,23,16.00
2009,09,17,11,24,16.00
2009,09,17,11,25,16.10
2009,09,17,11,26,16.10
2009,09,17,11,27,16.20
2009,09,17,11,28,16.30
2009,09,17,11,29,16.30
2009,09,17,11,30,16.40
2009,09,17,11,31,16.40
2009,09,17,11,32,16.40
2009,09,17,11,33,16.40
2009,09,17,11,34,16.50
2009,09,17,11,35,16.50
2009,09,17,11,36,16.50
2009,09,17,11,37,16.50
2009,09,17,11,38,16.60
2009,09,17,11,39,16.60
2009,09,17,11,40,16.60
2009,09,17,11,41,16.60
2009,09,17,11,42,16.60
2009,09,17,11,43,16.60
2009,09,17,11,44,16.60
2009,09,17,11,45,16.60
2009,09,17,11,46,16.50
2009,09,17,11,47,16.30
2009,09,17,11,48,16.10
2009,09,17,11,49,16.00
2009,09,17,11,50,15.90
2009,09,17,11,51,15.70
2009,09,17,11,52,15.70
2009,09,17,11,53,15.60
2009,09,17,11,54,15.60
2009,09,17,11,55,15.50
2009,09,17,11,56,15.40
2009,09,17,11,57,15.40
2009,09,17,11,58,15.40
2009,09,17,11,59,15.40
2009,09,17,12,00,15.40
2009,09,17,12,01,15.50
2009,09,17,12,02,15.50
2009,09,17,12,03,15.50
2009,09,17,12,04,15.50
2009,09,17,12,05,15.40
2009,09,17,12,06,15.40
2009,09,17,12,07,15.40
2009,09,17,12,08,15.30
2009,09,17,12,09,15.30
2009,09,17,12,10,15.20
2009,09,17,12,11,15.20
2009,09,17,12,12,15.10
2009,09,17,12,13,15.00
2009,09,17,12,14,15.00
2009,09,17,12,15,15.10
2009,09,17,12,16,15.20
2009,09,17,12,17,15.30
2009,09,17,12,18,15.40
2009,09,17,12,19,15.40
2009,09,17,12,20,15.40
2009,09,17,12,21,15.40
2009,09,17,12,22,15.40
2009,09,17,12,23,15.30
2009,09,17,12,24,15.30
2009,09,17,12,25,15.40
2009,09,17,12,26,15.50
2009,09,17,12,27,15.50
2009,09,17,12,28,15.50
2009,09,17,12,29,15.40
2009,09,17,12,30,15.30
2009,09,17,12,31,15.30
2009,09,17,12,32,15.30
2009,09,17,12,33,15.20
2009,09,17,12,34,15.30
2009,09,17,12,35,15.30
2009,09,17,12,36,15.30
2009,09,17,12,37,15.40
2009,09,17,12,38,15.50
2009,09,17,12,39,15.50
2009,09,17,12,40,15.60
2009,09,17,12,41,15.60
2009,09,17,12,42,15.70
2009,09,17,12,43,15.70
2009,09,17,12,44,15.80
2009,09,17,12,45,15.80
2009,09,17,12,46,15.80
2009,09,17,12,47,15.80
2009,09,17,12,48,15.80
2009,09,17,12,49,15.80
2009,09,17,12,50,15.80
2009,09,17,12,51,15.80
2009,09,17,12,52,15.70
2009,09,17,12,53,15.70
2009,09,17,12,54,15.80
2009,09,17,12,55,15.80
2009,09,17,12,56,15.80
2009,09,17,12,57,15.90
2009,09,17,12,58,15.90
2009,09,17,12,59,15.80
2009,09,17,13,00,15.70
2009,09,17,13,01,15.50
2009,09,17,13,02,15.40
2009,09,17,13,03,15.30
2009,09,17,13,04,15.20
2009,09,17,13,05,15.20
2009,09,17,13,06,15.10
2009,09,17,13,07,15.10
2009,09,17,13,08,15.10
2009,09,17,13,09,15.20
2009,09,17,13,10,15.20
2009,09,17,13,11,15.30
2009,09,17,13,12,15.30
2009,09,17,13,13,15.30
2009,09,17,13,14,15.30
2009,09,17,13,15,15.30
2009,09,17,13,16,15.40
2009,09,17,13,17,15.50
2009,09,17,13,18,15.60
2009,09,17,13,19,15.70
2009,09,17,13,20,15.80
2009,09,17,13,21,15.90
2009,09,17,13,22,16.00
2009,09,17,13,23,16.00
2009,09,17,13,24,16.10
2009,09,17,13,25,16.10
2009,09,17,13,26,16.20
2009,09,17,13,27,16.20
2009,09,17,13,28,16.20
2009,09,17,13,29,16.30
2009,09,17,13,30,16.30
2009,09,17,13,31,16.30
2009,09,17,13,32,16.30
2009,09,17,13,33,16.30
2009,09,17,13,34,16.30
2009,09,17,13,35,16.40
2009,09,17,13,36,16.50
2009,09,17,13,37,16.50
2009,09,17,13,38,16.60
2009,09,17,13,39,16.50
2009,09,17,13,40,16.50
2009,09,17,13,41,16.50
2009,09,17,13,42,16.50
2009,09,17,13,43,16.50
2009,09,17,13,44,16.50
2009,09,17,13,45,16.50
2009,09,17,13,46,16.60
2009,09,17,13,47,16.60
2009,09,17,13,48,16.50
2009,09,17,13,49,16.50
2009,09,17,13,50,16.50
2009,09,17,13,51,16.40
2009,09,17,13,52,16.50
2009,09,17,13,53,16.50
2009,09,17,13,54,16.50
2009,09,17,13,55,16.60
2009,09,17,13,56,16.60
2009,09,17,13,57,16.60
2009,09,17,13,58,16.60
2009,09,17,13,59,16.70
2009,09,17,14,00,16.70
2009,09,17,14,01,16.80
2009,09,17,14,02,16.80
2009,09,17,14,03,16.80
2009,09,17,14,04,16.80
2009,09,17,14,05,16.80
2009,09,17,14,06,16.90
2009,09,17,14,07,16.90
2009,09,17,14,08,16.90
2009,09,17,14,09,16.80
2009,09,17,14,10,16.80
2009,09,17,14,11,16.80
2009,09,17,14,12,16.90
2009,09,17,14,13,16.80
2009,09,17,14,14,16.80
2009,09,17,14,15,16.80
2009,09,17,14,16,16.80
2009,09,17,14,17,16.80
2009,09,17,14,18,16.90
2009,09,17,14,19,16.90
2009,09,17,14,20,16.90
2009,09,17,14,21,16.90
2009,09,17,14,22,16.90
2009,09,17,14,23,16.90
2009,09,17,14,24,16.90
2009,09,17,14,25,16.90
2009,09,17,14,26,16.90
2009,09,17,14,27,16.90
2009,09,17,14,28,16.90
2009,09,17,14,29,17.00
2009,09,17,14,30,17.10
2009,09,17,14,31,17.20
2009,09,17,14,32,17.20
2009,09,17,14,33,17.20
2009,09,17,14,34,17.20
2009,09,17,14,35,17.20
2009,09,17,14,36,17.20
2009,09,17,14,37,17.20
2009,09,17,14,38,17.20
2009,09,17,14,39,17.20
2009,09,17,14,40,17.30
2009,09,17,14,41,17.30
2009,09,17,14,42,17.40
2009,09,17,14,43,17.40
2009,09,17,14,44,17.50
2009,09,17,14,45,17.50
2009,09,17,14,46,17.60
2009,09,17,14,47,17.60
2009,09,17,14,48,17.70
2009,09,17,14,49,17.70
2009,09,17,14,50,17.80
2009,09,17,14,51,17.80
2009,09,17,14,52,17.80
2009,09,17,14,53,17.80
2009,09,17,14,54,17.80
2009,09,17,14,55,17.80
2009,09,17,14,56,17.80
2009,09,17,14,57,17.80
2009,09,17,14,58,17.80
2009,09,17,14,59,17.70
2009,09,17,15,00,17.60
2009,09,17,15,01,17.50
2009,09,17,15,02,17.50
2009,09,17,15,03,17.50
2009,09,17,15,04,17.50
2009,09,17,15,05,17.50
2009,09,17,15,06,17.40
2009,09,17,15,07,17.40
2009,09,17,15,08,17.40
2009,09,17,15,09,17.40
2009,09,17,15,10,17.30
2009,09,17,15,11,17.20
2009,09,17,15,12,17.20
2009,09,17,15,13,17.10
2009,09,17,15,14,17.00
2009,09,17,15,15,17.00
2009,09,17,15,16,17.00
2009,09,17,15,17,17.00
2009,09,17,15,18,17.10
2009,09,17,15,19,17.10
2009,09,17,15,20,17.20
2009,09,17,15,21,17.30
2009,09,17,15,22,17.40
2009,09,17,15,23,17.50
2009,09,17,15,24,17.60
2009,09,17,15,25,17.80
2009,09,17,15,26,17.90
2009,09,17,15,27,18.00
2009,09,17,15,28,18.10
2009,09,17,15,29,18.20
2009,09,17,15,30,18.20
2009,09,17,15,31,18.30
2009,09,17,15,32,18.30
2009,09,17,15,33,18.40
2009,09,17,15,34,18.40
2009,09,17,15,35,18.50
2009,09,17,15,36,18.50
2009,09,17,15,37,18.50
2009,09,17,15,38,18.40
2009,09,17,15,39,18.40
2009,09,17,15,40,18.30
2009,09,17,15,41,18.30
2009,09,17,15,42,18.20
2009,09,17,15,43,18.20
2009,09,17,15,44,18.20
2009,09,17,15,45,18.10
2009,09,17,15,46,18.00
2009,09,17,15,47,18.00
2009,09,17,15,48,17.90
2009,09,17,15,49,17.90
2009,09,17,15,50,17.80
2009,09,17,15,51,17.80
2009,09,17,15,52,17.80
2009,09,17,15,53,17.80
2009,09,17,15,54,17.70
2009,09,17,15,55,17.60
2009,09,17,15,56,17.60
2009,09,17,15,57,17.50
2009,09,17,15,58,17.40
2009,09,17,15,59,17.30
2009,09,17,16,00,17.20
2009,09,17,16,01,17.10
2009,09,17,16,02,17.10
2009,09,17,16,03,17.10
2009,09,17,16,04,17.20
2009,09,17,16,05,17.20
2009,09,17,16,06,17.20
2009,09,17,16,07,17.20
2009,09,17,16,08,17.20
2009,09,17,16,09,17.20
2009,09,17,16,10,17.20
2009,09,17,16,11,17.20
2009,09,17,16,12,17.20
2009,09,17,16,13,17.30
2009,09,17,16,14,17.30
2009,09,17,16,15,17.30
2009,09,17,16,16,17.30
2009,09,17,16,17,17.30
2009,09,17,16,18,17.30
2009,09,17,16,19,17.30
2009,09,17,16,20,17.40
2009,09,17,16,21,17.40
2009,09,17,16,22,17.30
2009,09,17,16,23,17.30
2009,09,17,16,24,17.30
2009,09,17,16,25,17.40
2009,09,17,16,26,17.40
2009,09,17,16,27,17.40
2009,09,17,16,28,17.40
2009,09,17,16,29,17.40
2009,09,17,16,30,17.40
2009,09,17,16,31,17.40
2009,09,17,16,32,17.40
2009,09,17,16,33,17.40
2009,09,17,16,34,17.50
2009,09,17,16,35,17.50
2009,09,17,16,36,17.50
2009,09,17,16,37,17.50
2009,09,17,16,38,17.60
2009,09,17,16,39,17.60
2009,09,17,16,40,17.60
2009,09,17,16,41,17.70
2009,09,17,16,42,17.70
2009,09,17,16,43,17.70
2009,09,17,16,44,17.70
2009,09,17,16,45,17.70
2009,09,17,16,46,17.80
2009,09,17,16,47,17.80
2009,09,17,16,48,17.80
2009,09,17,16,49,17.80
2009,09,17,16,50,17.80
2009,09,17,16,51,17.80
2009,09,17,16,52,17.80
2009,09,17,16,53,17.80
2009,09,17,16,54,17.80
2009,09,17,16,55,17.80
2009,09,17,16,56,17.80
2009,09,17,16,57,17.90
2009,09,17,16,58,17.90
2009,09,17,16,59,18.00
2009,09,17,17,00,18.10
2009,09,17,17,01,18.20
2009,09,17,17,02,18.20
2009,09,17,17,03,18.20
2009,09,17,17,04,18.20
2009,09,17,17,05,18.30
2009,09,17,17,06,18.20
2009,09,17,17,07,18.30
2009,09,17,17,08,18.30
2009,09,17,17,09,18.30
2009,09,17,17,10,18.30
2009,09,17,17,11,18.30
2009,09,17,17,12,18.30
2009,09,17,17,13,18.30
2009,09,17,17,14,18.30
2009,09,17,17,15,18.30
2009,09,17,17,16,18.30
2009,09,17,17,17,18.20
2009,09,17,17,18,18.20
2009,09,17,17,19,18.20
2009,09,17,17,20,18.20
2009,09,17,17,21,18.20
2009,09,17,17,22,18.20
2009,09,17,17,23,18.20
2009,09,17,17,24,18.20
2009,09,17,17,25,18.20
2009,09,17,17,26,18.20
2009,09,17,17,27,18.20
2009,09,17,17,43,18.00
2009,09,17,17,44,18.00
2009,09,17,17,45,18.00
2009,09,17,17,46,18.00
2009,09,17,17,47,18.00
2009,09,17,17,48,18.00
2009,09,17,17,49,18.00
2009,09,17,17,50,18.00
2009,09,17,17,51,18.00
2009,09,17,17,52,18.00
2009,09,17,17,53,18.00
2009,09,17,17,54,18.00
2009,09,17,17,55,18.00
2009,09,17,17,56,18.00
